This demonstration page uses our WeatherBlox Daily Observations layout. Learn more.

Left ArrowRight Arrow

38.20091, -84.87328

Hourly Observations for March 19, 2022

Temp ( °F °C ) Dew Point ( °F °C ) Humidity (%) Winds ( mph kmh ) Pressure ( in mb ) Visibility ( mi km ) Precip ( " mm )
12:41 am 00:41 Cloudy with Light Rain 57 13.9 53 11.7 87 87 SW 18 30 29.69 1005 7 11 0.07 1.78
12:53 am 00:53 Cloudy with Light Rain 56 13.3 54 12.2 93 93 SW 10 17 29.68 1005 7 11 0.08 2.03
1:53 am 01:53 Cloudy with Rain 56 13.3 54 12.2 93 93 SSW 13 20 29.69 1006 5 8 0.09 2.29
2:05 am 02:05 Cloudy 56 13.3 53 11.7 90 90 SSW 13 20 29.70 1006 10 16 0.00 0.00
2:49 am 02:49 Cloudy 55 13 54 12 94 94 SSW 8 13 29.71 1006 10 16 0.00 0.00
2:53 am 02:53 Cloudy 56 13.3 54 12.2 93 93 SSW 8 13 29.70 1006 10 16 0.00 0.00
3:06 am 03:06 Cloudy 56 13.3 54 12.2 93 93 SW 9 15 29.71 1006 10 16 0.00 0.00
3:13 am 03:13 Cloudy 56 13.3 54 12.2 93 93 SSW 13 20 29.71 1006 10 16 0.00 0.00
3:53 am 03:53 Cloudy 55 12.8 51 10.6 87 87 WSW 10 17 29.69 1006 10 16 0.00 0.00
4:53 am 04:53 Cloudy 54 12.2 49 9.4 83 83 WSW 9 15 29.69 1005 10 16 0.00 0.00
5:28 am 05:28 Cloudy 53 11.7 48 8.9 83 83 SW 16 26 29.71 1006 10 16 0.00 0.00
5:53 am 05:53 Cloudy 53 11.7 48 8.9 83 83 SW 8 13 29.70 1006 10 16 0.00 0.00
6:10 am 06:10 Cloudy 53 11.7 47 8.3 80 80 SW 15 24 29.72 1007 10 16 0.00 0.00
6:53 am 06:53 Cloudy 52 11.1 46 7.8 80 80 SW 10 17 29.73 1007 10 16 0.00 0.00
7:53 am 07:53 Cloudy 50 10 45 7.2 83 83 SW 21 33 29.76 1008 7 11 0.00 0.00
8:53 am 08:53 Cloudy 49 9.4 44 6.7 83 83 SW 21 33 29.79 1009 10 16 0.00 0.00
9:53 am 09:53 Cloudy 49 9.4 44 6.7 83 83 SW 16 26 29.82 1010 9 14 0.00 0.00
10:53 am 10:53 Cloudy 49 9.4 43 6.1 80 80 WSW 15 24 29.84 1011 10 16 0.00 0.00
11:53 am 11:53 Cloudy 48 8.9 43 6.1 83 83 SW 17 28 29.87 1011 10 16 0.00 0.00
12:53 pm 12:53 Cloudy 50 10 42 5.6 74 74 SW 18 30 29.88 1012 10 16 0.00 0.00
1:53 pm 13:53 Cloudy 49 9.4 41 5 74 74 SW 20 31 29.90 1013 10 16 0.00 0.00
2:53 pm 14:53 Cloudy 48 8.9 41 5 77 77 SW 15 24 29.91 1013 10 16 0.00 0.00
3:44 pm 15:44 Cloudy with Light Rain 46 7.8 43 6.1 89 89 WSW 13 20 29.95 1014 3 4 0.01 0.25
3:50 pm 15:50 Cloudy with Light Rain 46 8 43 6 87 87 WSW 14 22 29.95 1014 3 5 0.01 0.25
3:53 pm 15:53 Cloudy with Light Rain 46 7.8 43 6.1 89 89 SW 13 20 29.93 1014 4 6 0.01 0.25
4:04 pm 16:04 Cloudy with Light Rain 46 7.8 43 6.1 89 89 WSW 9 15 29.95 1014 3 5 0.00 0.00
4:14 pm 16:14 Cloudy with Light Rain 45 7.2 43 6.1 93 93 W 9 15 29.96 1015 2 3 0.02 0.51
4:24 pm 16:24 Cloudy with Light Rain 45 7.2 41 5 86 86 W 13 20 29.96 1015 4 6 0.02 0.51
4:39 pm 16:39 Cloudy 45 7.2 41 5 86 86 WSW 16 26 29.97 1015 9 14 0.02 0.51
4:53 pm 16:53 Cloudy 46 7.8 42 5.6 86 86 WSW 10 17 29.96 1014 10 16 0.02 0.51
5:53 pm 17:53 Cloudy 46 7.8 38 3.3 73 73 WSW 15 24 29.98 1015 10 16 0.01 0.25
6:53 pm 18:53 Cloudy with Mist and Fog 44 6.7 40 4.4 85 85 WSW 12 19 30.01 1016 5 8 0.00 0.00
7:53 pm 19:53 Cloudy with Mist and Fog 43 6.1 41 5 93 93 WSW 8 13 30.03 1017 4 6 0.00 0.00
8:24 pm 20:24 Cloudy 43 6.1 41 5 93 93 WSW 12 19 30.06 1018 9 14 0.00 0.00
8:53 pm 20:53 Cloudy 43 6.1 41 5 93 93 WSW 9 15 30.05 1018 9 14 0.00 0.00
9:25 pm 21:25 Cloudy 43 6.1 41 5 93 93 WSW 10 17 30.07 1018 9 14 0.00 0.00
9:53 pm 21:53 Cloudy 44 6.7 41 5 89 89 WSW 9 15 30.06 1018 10 16 0.00 0.00
10:30 pm 22:30 Cloudy with Mist and Fog 44 6.7 41 5 89 89 WSW 8 13 30.09 1019 6 10 0.00 0.00
10:51 pm 22:51 Cloudy 45 7 43 6 93 93 SW 10 17 30.09 1019 8 13 0.00 0.00
10:53 pm 22:53 Cloudy 44 6.7 42 5.6 93 93 WSW 10 17 30.07 1018 9 14 0.00 0.00
11:02 pm 23:02 Cloudy 44 6.7 42 5.6 93 93 SW 9 15 30.09 1019 8 13 0.00 0.00
11:16 pm 23:16 Cloudy 44 6.7 41 5 89 89 SW 9 15 30.09 1019 8 13 0.00 0.00
11:53 pm 23:53 Cloudy 44 6.7 41 5 89 89 SW 9 15 30.08 1019 10 16 0.00 0.00

Powered by AerisWeather